This is the latest recevied weather packets stored in our database for station/object W4JCW. If no packets are shown the sender has not sent any weather packets the latest 10 day(s).
| Time | Temp. | Humidity | Pressure | Rain* | Wind** | Luminosity | Snow |
|---|---|---|---|---|---|---|---|
| 1777910676 | 23.89° C | 39% | 1015.8 hPa | 0 mm | - | 940 W/m² | - |
| 1777910372 | 23.33° C | 37% | 1016 hPa | 0 mm | - | 940 W/m² | - |
| 1777910069 | 23.33° C | 37% | 1015.8 hPa | 0 mm | - | 932 W/m² | - |
| 1777909767 | 23.33° C | 38% | 1016 hPa | 0 mm | - | 925 W/m² | - |
| 1777909463 | 22.78° C | 39% | 1016 hPa | 0 mm | - | 918 W/m² | - |
| 1777909161 | 22.78° C | 39% | 1016 hPa | 0 mm | - | 907 W/m² | - |
| 1777908859 | 22.78° C | 39% | 1016.2 hPa | 0 mm | - | 892 W/m² | - |
| 1777908555 | 22.78° C | 40% | 1016.1 hPa | 0 mm | - | 881 W/m² | - |
| 1777908253 | 22.78° C | 44% | 1016.2 hPa | 0 mm | - | 870 W/m² | - |
| 1777907949 | 22.22° C | 43% | 1016.3 hPa | 0 mm | - | 859 W/m² | - |
| 1777907644 | 22.22° C | 43% | 1016.3 hPa | 0 mm | - | 845 W/m² | - |
| 1777907340 | 21.67° C | 44% | 1016.2 hPa | 0 mm | - | 839 W/m² | - |
| 1777907036 | 21.11° C | 43% | 1016.5 hPa | 0 mm | - | 366 W/m² | - |
| 1777906734 | 21.11° C | 45% | 1016.3 hPa | 0 mm | - | 68 W/m² | - |
| 1777906430 | 20.56° C | 46% | 1016.7 hPa | 0 mm | - | 66 W/m² | - |
| 1777906127 | 20.56° C | 46% | 1016.5 hPa | 0 mm | - | 79 W/m² | - |
| 1777905824 | 20.56° C | 46% | 1016.4 hPa | 0 mm | - | 64 W/m² | - |
| 1777905521 | 20.56° C | 50% | 1016.5 hPa | 0 mm | - | 64 W/m² | - |
| 1777905218 | 20.56° C | 55% | 1016.5 hPa | 0 mm | - | 206 W/m² | - |
| 1777904915 | 20.56° C | 52% | 1016.5 hPa | 0 mm | - | 66 W/m² | - |
| 1777904612 | 20° C | 57% | 1016.5 hPa | 0 mm | - | 161 W/m² | - |
| 1777904310 | 20° C | 58% | 1016.7 hPa | 0 mm | - | 269 W/m² | - |
| 1777904007 | 19.44° C | 60% | 1016.4 hPa | 0 mm | - | 642 W/m² | - |
| 1777903703 | 18.89° C | 61% | 1016.5 hPa | 0 mm | - | 356 W/m² | - |
| 1777903399 | 18.89° C | 59% | 1016.5 hPa | 0 mm | - | 298 W/m² | - |
* Rain latest hour (hover to see other rain measurements)
** Current wind speed in m/s (hover to see current wind gust speed)